Location: Peterborough
(44.3091°N, 78.3197°W)
Time: 04:15:39
(UTC-04:00)

S-56A Canister/Altair - Pass Details

Date: 25 March 2023
Orbit: 639 x 2492 km, 38.9° (Epoch: 08 June)

Event Time Altitude Azimuth Distance (km) Brightness Sun altitude
Rises 19:49:25 0° 229° (SW) 4,838 12.3 -4.0°
Reaches altitude 10° 19:52:21 10° 225° (SW) 4,078 11.8 -4.5°
Maximum altitude 20:03:21 52° 153° (SSE) 2,614 10.0 -6.4°
Drops below altitude 10° 20:17:25 10° 83° (E) 5,149 11.1 -8.9°
Enters shadow 20:18:43 - 82° (E) 5,461 11.3 -9.1°
Sets 20:21:37 0° 80° (E) 6,165 - -9.7°
